[Iaude] MPEC J32: 2024 JG [a=1.79,e=0.44,i=2.2,H=25.4]
    mpec at cfa.harvard.edu 
    mpec at cfa.harvard.edu
       
    Fri May  3 03:07:55 EDT 2024
    
    
  
M.P.E.C. 2024-J32                                   Issued 2024 May 3, 07:06 UT
     The Minor Planet Electronic Circulars contain information on unusual
         minor planets, routine data on comets and natural satellites,
         and occasional editorial announcements.  They are published
    on behalf of Division F of the International Astronomical Union by the
          Minor Planet Center, Smithsonian Astrophysical Observatory,
                          Cambridge, MA 02138, U.S.A.
			  
             Prepared using the Tamkin Foundation Computer Network
                              MPC at CFA.HARVARD.EDU
            URL https://www.minorplanetcenter.net/    ISSN 1523-6714
                                    2024 JG                                     
Observations:
     K24J00G* C2024 05 01.36398113 42 21.649-10 12 46.34         21.89wXEJ032F52
     K24J00G  C2024 05 01.38850113 42 21.925-10 12 20.87         22.18wXEJ032F52
     K24J00G  C2024 05 01.40041613 42 22.043-10 12 08.44         21.99wXEJ032F52
     K24J00G  C2024 05 01.46890113 42 22.889-10 10 55.73         21.90GVEJ032F52
     K24J00G  C2024 05 01.46955313 42 22.895-10 10 55.10         21.88GVEJ032F52
     K24J00G KC2024 05 02.18042413 42 54.50 -09 58 32.8          21.7 GVEJ032H21
     K24J00G KC2024 05 02.19198513 42 54.73 -09 58 20.2          21.7 GVEJ032H21
     K24J00G KC2024 05 02.19487613 42 54.78 -09 58 17.1          21.5 GVEJ032H21
     K24J00G KC2024 05 02.19776513 42 54.85 -09 58 13.9          21.7 GVEJ032H21
     K24J00G KC2024 05 02.30702813 42 58.396-09 56 06.94         21.64GVEJ032V06
     K24J00G KC2024 05 02.30934413 42 58.428-09 56 04.38         21.86GVEJ032V06
     K24J00G KC2024 05 02.31166213 42 58.475-09 56 01.82         21.66GVEJ032V06
     K24J00G KC2024 05 02.31398013 42 58.518-09 55 59.12         21.87GVEJ032V06
     K24J00G !C2024 05 03.27040 13 43 44.20 -09 37 47.8          20.7 GVEJ032673
     K24J00G !C2024 05 03.28247 13 43 44.46 -09 37 33.5                VEJ032673
Observer details:
673 Table Mountain Observatory, Wrightwood.  Observer J. Pittichova.  1.0-m
    f/15 reflector + CCD.
F52 Pan-STARRS 2, Haleakala.  Observers J. Herman, T. Lowe, P. Minguez, A.
    Schultz, I. Smith.  Measurers K. Chambers, T. de Boer, J. Fairlamb, H.
    Gao, M. Huber, C.-C. Lin, E. Magnier, Y. Ramanjooloo, R. Wainscoat, R.
    Weryk.  1.8-m Ritchey-Chretien + CCD.
H21 Astronomical Research Observatory, Westfield.  Observer R. Holmes.
    Measurers T. Linder, R. Holmes, L. Horn.  1.3-m f/4.0 astrograph + CCD.
V06 Catalina Sky Survey-Kuiper.  Observers V. F. Carvajal, G. J. Leonard.
    Measurers T. Beuden, V. F. Carvajal, D. Fay, J. B. Fazekas, D. C. Fuls, A.
    R. Gibbs, A. D. Grauer, H. Groeller, J. K. Hogan, R. A. Kowalski, S. M.
    Larson, G. J. Leonard, D. Rankin, R. L. Seaman, F. C. Shelly, K. W.
    Wierzchos.  1.55-m reflector + 1K CCD.
Orbital elements:
2024 JG                                                  Earth MOID = 0.0208 AU
Epoch 2024 Mar. 31.0 TT = JDT 2460400.5                 MPC                     
M 327.42370              (2000.0)            P               Q                  
n   0.41037742     Peri.   53.54382     +0.03428165     +0.99912991             
a   1.7934134      Node   218.44169     -0.92873241     +0.02306930             
e   0.4445955      Incl.    2.18951     -0.36916240     +0.03474521             
P   2.40           H   25.48          G   0.15           U   9                  
Residuals in seconds of arc
240501 F52  0.2+  0.2-    240502 H21  0.1-  0.0     240502 V06  0.0   0.1+
240501 F52  0.2+  0.0     240502 H21  0.0   0.0     240502 V06  0.0   0.0
240501 F52  0.1-  0.0     240502 H21  0.1-  0.1-    240502 V06  0.0   0.1+
240501 F52  0.0   0.1+    240502 H21  0.1+  0.0     240503 673  0.4-  0.7-
240501 F52  0.0   0.0     240502 V06  0.1+  0.1+    240503 673  0.6-  0.6-
Ephemeris:
2024 JG                  a,e,i = 1.79, 0.44, 2                   q = 0.9961
Date    TT    R. A. (2000) Decl.     Delta      r    Elong.  Phase     V
2024 04 03    13 36 31.6 -13 48 42   0.3013  1.2938   165.6    11.1    24.1
...
2024 04 18    13 38 16.0 -12 47 16   0.2002  1.2041   177.5     2.1    22.6
...
2024 04 26    13 39 50.8 -11 30 29   0.1550  1.1597   171.3     7.5    22.3
...
2024 05 02    13 42 46.3 -10 00 57   0.1242  1.1286   165.7    12.8    22.0
2024 05 03    13 43 30.8 -09 42 14   0.1193  1.1236   164.8    13.6    21.9
2024 05 04    13 44 21.2 -09 22 09   0.1144  1.1187   163.8    14.5    21.8
...
2024 05 10    13 52 20.8 -06 43 29   0.08646 1.0907   158.5    19.8    21.3
...
2024 05 18    14 20 07.0 +00 20 39   0.05218 1.0579   152.1    26.5    20.4
...
2024 06 02    21 36 25.9 +38 58 14   0.02858 1.0135    87.8    90.6    21.0
A. U. Tomatic                (C) Copyright 2024 MPC           M.P.E.C. 2024-J32
    
    
More information about the Iaude
mailing list